Lapse_Rate
7.3 7.4 7.5 7.5 7.4 7.6 7.5 7.4 7.4 7.6 7.6 7.4 7.0 7.1 6.9 7.1 7.1 6.9 7.1 6.7 6.4 6.3 6.7 7.1 7.3 7.2 6.7 6.9 6.6 6.4 6.7 7.2 7.3 7.1 6.9 7.1 6.9 7.5 7.4 7.5 7.4 8.0 7.9 7.6 7.3 7.3 7.1 8.1 8.3 8.3 8.6 8.2 7.9 7.7
7.2 7.4 7.4 7.4 7.3 7.3 7.3 7.4 7.6 7.5 7.4 7.5 7.2 6.9 7.5 7.1 7.1 7.0 7.0 6.4 6.1 6.3 7.0 7.2 7.0 7.2 6.9 7.0 6.6 6.2 7.5 7.5 7.2 6.9 6.8 7.1 7.2 7.3 7.1 7.1 7.4 7.5 7.8 8.0 8.2 7.9 8.4 8.5 8.5 8.5 8.4 8.2 7.9 7.6
7.1 7.3 7.6 7.6 7.3 7.3 7.3 7.3 7.3 7.4 7.3 7.2 7.1 7.1 7.1 7.1 7.0 6.9 6.7 6.5 6.2 6.4 7.0 6.7 6.8 6.9 7.5 6.4 5.9 6.3 7.1 7.4 7.7 7.8 7.7 8.0 7.6 7.6 7.4 7.3 7.7 7.7 7.8 7.7 8.1 8.3 8.6 8.7 8.5 8.5 8.4 8.1 7.8 7.6
6.8 6.8 7.3 7.3 7.3 7.2 7.1 7.3 7.5 7.4 6.9 7.1 7.2 7.0 6.9 6.9 6.9 7.0 6.7 6.6 6.6 7.1 6.7 6.8 6.7 6.7 6.6 6.0 6.0 6.0 6.3 7.2 7.3 7.4 7.3 7.4 7.6 7.5 7.5 7.8 7.8 7.8 7.8 7.9 7.9 8.2 8.5 8.6 8.6 8.5 8.2 7.9 7.7 7.6
7.3 6.9 7.0 7.2 7.4 7.4 7.3 7.1 6.9 6.8 7.0 7.2 7.2 7.0 7.0 6.8 6.7 6.7 6.7 6.7 6.9 6.8 6.8 6.8 6.5 6.5 6.0 5.6 5.7 6.0 6.1 6.7 6.7 6.9 6.6 6.5 7.0 7.3 7.4 7.8 7.5 7.4 7.6 7.7 7.8 8.5 8.7 8.5 8.5 8.1 7.8 7.7 7.7 7.7
7.0 7.1 6.9 7.1 7.1 7.2 7.2 7.1 7.0 7.1 7.1 7.0 6.9 6.7 6.4 6.5 6.6 6.6 6.6 6.7 6.7 6.6 6.0 6.2 6.5 6.3 6.4 6.0 5.4 5.6 5.8 6.2 6.4 6.4 6.5 6.6 6.7 6.9 6.9 7.0 7.6 7.5 7.7 7.9 7.9 8.3 8.2 8.2 8.3 8.1 8.0 7.8 7.7 7.6
6.5 6.6 6.7 6.7 7.0 7.0 7.1 7.0 6.8 6.6 6.6 6.4 6.3 6.5 6.4 6.3 6.3 6.3 6.1 6.7 7.0 6.3 5.9 5.5 6.5 6.1 6.5 6.2 5.8 5.8 5.9 5.8 5.9 6.2 6.3 6.6 6.5 6.4 6.4 6.5 7.1 7.2 7.7 8.0 7.9 8.1 8.1 8.2 8.1 8.3 8.0 7.7 7.7 7.6
6.3 6.3 6.5 6.5 6.5 6.5 6.5 6.5 6.4 6.3 6.2 6.1 6.1 6.2 6.2 6.0 5.9 6.0 6.3 7.1 7.6 7.0 6.5 5.6 6.1 6.1 6.0 6.0 6.0 5.8 6.2 6.1 6.1 6.1 6.2 6.4 6.5 6.5 6.0 6.2 6.5 6.8 7.1 7.4 7.7 7.9 8.0 8.0 7.9 8.1 8.0 7.8 7.7 7.7
6.0 6.2 6.2 6.1 6.1 6.0 6.0 5.8 5.6 5.6 5.6 5.7 5.6 5.7 5.8 6.1 6.2 6.3 6.4 6.6 6.3 6.8 6.4 6.3 6.3 6.3 6.4 6.8 6.0 6.3 6.0 5.9 5.7 5.8 6.2 6.3 6.3 5.8 6.0 6.2 6.3 6.7 6.9 7.3 7.6 7.6 7.9 7.8 7.8 7.9 7.9 7.8 7.8 7.6
5.7 5.6 5.8 5.9 6.0 5.9 5.7 5.6 5.6 5.6 5.5 5.7 5.9 6.0 6.2 6.0 6.5 7.1 6.7 6.7 6.5 6.5 6.5 6.3 6.3 6.7 6.7 6.8 6.6 6.2 6.4 6.5 6.4 6.2 6.1 5.7 5.8 5.8 5.8 6.1 6.3 6.6 6.9 7.3 7.4 7.6 7.7 7.0 7.6 7.7 7.6 7.4 7.3 7.4
5.5 5.3 5.3 5.5 5.5 5.7 5.9 6.0 6.0 5.9 5.7 5.8 5.8 5.6 6.0 7.2 7.2 7.5 7.0 6.8 6.9 6.2 6.2 6.9 6.4 6.6 6.5 6.8 6.7 6.3 6.4 6.4 6.4 6.3 6.0 5.9 5.7 5.5 5.7 6.1 6.3 6.3 6.4 6.9 7.2 7.4 7.5 7.5 7.3 7.6 7.5 7.2 7.0 6.9
5.8 5.7 5.3 5.3 5.6 5.8 5.9 6.0 5.8 5.7 5.6 5.8 5.9 6.2 6.5 6.7 7.4 7.5 6.5 6.8 6.5 6.6 6.7 6.8 6.8 6.5 6.4 6.5 6.5 6.6 6.5 6.3 6.4 6.2 6.0 5.9 5.8 6.0 6.1 6.3 6.4 6.5 6.3 6.4 6.6 7.0 7.3 7.1 6.9 6.9 7.2 6.9 6.4 6.1
6.5 5.8 5.3 5.2 5.2 5.2 5.2 5.6 5.6 5.7 5.8 5.7 5.7 6.2 6.7 7.0 7.0 6.8 6.6 7.0 6.6 6.5 6.9 6.8 6.2 6.2 6.2 6.1 6.3 6.5 6.2 6.3 6.2 6.1 5.4 4.7 5.3 5.9 6.2 6.3 6.4 6.4 6.4 6.5 6.4 6.5 6.4 6.5 6.0 5.9 6.4 6.4 6.4 5.7
6.5 6.0 6.1 5.5 5.4 5.4 5.9 6.1 5.9 5.9 5.5 5.7 6.1 6.4 6.7 6.7 6.3 6.4 6.8 6.8 7.4 7.5 7.0 6.6 6.5 6.4 6.4 6.6 6.5 6.2 6.0 6.2 5.8 5.0 3.8 4.2 4.8 5.5 5.7 5.8 5.9 6.0 6.1 6.2 6.1 6.3 5.9 6.4 6.2 6.1 6.1 5.8 5.6 5.6
6.5 6.7 6.7 6.4 5.9 6.1 6.1 6.2 6.1 6.0 6.3 6.5 6.2 6.1 5.6 6.1 6.3 6.1 6.5 6.8 6.7 6.7 6.5 6.4 6.7 6.8 6.5 6.2 5.9 5.6 5.4 4.6 3.8 3.2 3.5 3.9 4.3 4.7 5.1 5.2 5.3 5.4 5.5 5.5 5.8 5.7 5.8 5.7 5.6 5.6 5.5 5.1 5.0 5.0
6.0 6.1 5.9 5.8 6.0 6.3 6.3 6.2 6.1 6.3 6.1 6.4 5.7 5.2 4.9 5.0 5.2 5.4 5.9 6.2 6.4 6.5 6.7 6.6 6.4 6.5 6.1 5.5 5.4 4.5 4.0 3.2 3.1 3.4 3.6 4.0 4.3 4.7 4.9 4.9 4.9 5.0 5.0 5.2 5.3 5.2 5.1 5.1 5.0 4.9 4.7 4.7 4.7 4.5
5.4 5.7 5.6 5.1 5.3 5.7 6.1 6.0 6.0 6.1 6.1 5.9 5.2 5.1 4.9 5.4 5.8 6.0 6.1 6.1 6.2 6.4 6.4 6.3 6.1 5.5 4.9 4.5 3.7 3.5 3.2 3.5 3.6 3.6 4.1 4.2 4.5 4.6 4.6 4.6 4.7 4.8 4.8 4.8 4.7 4.7 4.6 4.6 4.5 4.4 4.3 4.3 4.2 4.1
5.2 5.0 5.1 5.0 5.1 5.4 5.6 5.6 5.9 5.7 5.6 5.2 4.7 4.8 5.3 5.4 5.7 5.8 6.0 6.2 6.3 6.4 6.3 6.1 5.4 4.8 4.0 3.2 2.8 3.3 3.6 3.8 3.9 4.0 4.3 4.4 4.4 4.5 4.5 4.5 4.4 4.2 4.2 4.2 4.0 4.0 4.2 4.2 4.2 4.1 4.0 4.0 4.0 4.1
5.5 5.4 5.3 5.2 5.1 5.1 5.3 5.4 5.5 4.6 3.9 4.2 4.4 5.0 5.3 5.6 5.8 6.0 6.1 6.1 6.1 6.2 6.4 5.6 4.4 3.5 3.1 3.4 3.5 3.7 3.8 3.9 4.1 4.2 4.3 4.3 4.3 4.3 4.3 4.2 4.2 4.2 4.3 4.3 4.2 4.1 4.0 4.0 4.0 4.1 4.1 4.1 4.1 3.9
5.7 5.6 5.4 5.2 5.4 5.4 4.9 4.6 4.4 4.1 4.0 4.4 5.0 5.6 5.8 5.9 5.7 5.8 5.8 6.0 6.2 6.4 6.4 4.1 3.7 3.5 3.7 3.9 4.0 4.1 4.1 4.1 4.1 4.3 4.3 4.3 4.3 4.2 4.3 4.4 4.4 4.4 4.4 4.3 4.3 4.3 4.3 4.2 4.2 4.1 4.0 4.0 4.0 4.0
5.7 5.5 5.5 5.4 5.6 5.7 5.0 4.6 4.4 4.3 4.1 3.9 4.0 4.4 4.2 4.2 5.1 5.8 6.1 5.6 6.4 6.0 4.3 3.6 3.7 3.8 3.9 3.9 4.0 4.0 4.1 4.0 3.9 4.1 4.3 4.4 4.4 4.4 4.5 4.6 4.6 4.5 4.4 4.4 4.4 4.4 4.4 4.4 4.5 4.4 4.5 4.5 4.4 4.4
5.7 5.7 5.7 5.6 5.7 5.5 4.8 4.8 4.8 4.6 4.4 4.3 4.4 4.5 4.7 4.9 5.1 5.3 5.4 6.2 4.8 3.4 3.3 3.3 3.6 3.7 3.8 4.0 4.0 4.1 4.1 3.9 4.0 4.1 4.1 4.1 4.2 4.3 4.4 4.5 4.5 4.5 4.6 4.6 4.6 4.6 4.6 4.6 4.5 4.4 4.4 4.3 4.3 4.5
5.7 5.8 5.9 5.8 5.5 4.9 4.6 4.7 5.0 4.9 4.6 4.5 4.8 4.7 4.7 4.9 4.8 4.6 4.3 4.1 3.5 3.1 3.0 3.2 3.3 3.6 3.9 4.2 4.2 4.3 4.5 4.6 4.5 4.6 4.6 4.5 4.5 4.5 4.4 4.4 4.4 4.4 4.4 4.4 4.4 4.4 4.5 4.5 4.7 4.8 4.9 5.0 5.0 4.9
6.3 6.6 6.5 6.0 5.5 5.0 5.0 5.2 5.3 5.2 5.1 5.2 5.1 4.6 4.7 4.6 4.5 4.5 4.2 3.5 3.3 3.2 3.3 3.6 3.7 3.8 3.9 4.0 4.0 4.2 4.3 4.5 4.5 4.5 4.5 4.6 4.6 4.6 4.7 4.7 4.9 5.0 5.1 5.2 5.2 5.2 5.3 5.3 5.3 5.2 5.3 5.3 5.3 5.1
6.9 7.0 6.7 6.3 5.9 5.6 5.6 5.7 5.7 5.5 5.3 5.4 5.5 5.3 5.0 5.0 4.9 4.2 4.0 3.8 3.6 3.5 3.6 3.8 3.9 3.9 3.9 3.9 4.1 4.1 4.2 4.3 4.3 4.4 4.6 4.7 4.8 5.0 5.3 5.4 5.5 5.6 5.7 5.7 5.7 5.7 5.7 5.6 5.5 5.4 5.2 5.1 4.9 4.7
7.8 7.4 7.2 6.8 6.6 6.6 6.2 6.1 6.1 6.1 6.1 5.9 5.5 5.2 5.1 5.1 5.0 4.7 4.5 4.4 4.3 4.2 4.1 4.1 4.1 4.0 4.1 4.1 4.2 4.5 4.8 5.1 5.3 5.6 5.6 5.6 5.6 5.6 5.6 5.6 5.6 5.6 5.5 5.5 5.3 5.3 5.2 5.1 5.0 4.9 4.8 4.8 4.7 4.6
7.7 7.4 7.4 7.4 7.2 7.0 6.6 6.4 6.3 6.2 6.1 5.7 5.6 5.6 5.5 5.5 5.5 5.4 5.2 5.0 4.8 4.6 4.5 4.4 4.4 4.7 5.1 5.5 5.6 5.7 5.7 5.8 5.8 5.8 5.7 5.7 5.8 5.7 5.6 5.6 5.6 5.5 5.4 5.3 5.2 5.1 5.1 5.0 5.0 5.0 4.9 4.9 4.9 4.8
7.2 6.9 7.1 6.9 6.8 6.7 6.6 6.4 6.2 6.0 5.8 5.8 5.8 5.9 5.9 5.9 5.8 5.7 5.4 5.2 5.1 5.0 5.2 5.5 5.7 5.7 5.7 5.8 5.8 5.8 5.8 5.7 5.7 5.7 5.7 5.6 5.7 5.7 5.7 5.7 5.6 5.6 5.5 5.4 5.2 5.1 5.1 5.1 5.1 5.2 5.1 5.1 5.0 4.8
6.8 6.7 6.7 6.5 6.4 6.2 6.1 6.0 5.8 5.8 5.8 5.8 5.8 5.8 5.7 5.7 5.7 5.6 5.5 5.4 5.5 5.7 5.8 5.8 5.8 5.9 6.0 6.0 6.0 6.0 6.1 6.1 6.1 6.1 6.1 6.0 5.9 5.9 5.8 5.6 5.5 5.3 5.2 5.2 5.3 5.3 5.2 5.2 5.3 5.2 5.1 5.1 5.0 4.9
6.5 6.4 6.3 6.2 6.2 5.9 5.8 5.8 5.7 5.7 5.7 5.7 5.6 5.7 5.7 5.7 5.8 5.7 5.8 5.9 5.9 5.7 5.8 6.0 6.1 6.1 6.1 6.1 6.0 6.0 5.9 5.9 5.9 5.8 5.8 5.7 5.7 5.5 5.5 5.4 5.4 5.4 5.3 5.3 5.3 5.3 5.3 5.2 5.2 5.2 5.1 5.1 5.0 5.0
6.3 6.2 6.2 6.2 6.0 5.8 5.8 5.8 5.8 5.7 5.7 5.7 5.7 5.7 5.9 5.9 6.0 6.1 5.9 5.7 5.7 6.0 6.0 6.1 6.0 5.9 5.8 5.7 5.7 5.7 5.7 5.7 5.7 5.7 5.6 5.6 5.6 5.5 5.5 5.5 5.4 5.4 5.4 5.4 5.4 5.4 5.4 5.4 5.3 5.2 5.1 5.3 5.6 5.7
6.2 6.1 6.2 6.2 6.1 5.9 5.9 5.8 5.8 5.8 5.8 5.8 6.0 6.1 6.1 6.1 6.0 5.8 5.7 5.9 6.0 6.0 5.9 5.7 5.7 5.6 5.6 5.6 5.7 5.7 5.7 5.6 5.6 5.5 5.4 5.4 5.4 5.4 5.4 5.4 5.5 5.5 5.5 5.6 5.6 5.6 5.5 5.5 5.4 5.3 5.4 5.6 5.8 5.9
6.1 6.1 6.1 6.1 6.0 6.0 6.0 6.0 6.0 6.1 6.2 6.2 6.2 6.2 6.1 6.0 5.8 5.8 5.9 5.8 5.7 5.6 5.7 5.7 5.7 5.8 5.8 5.8 5.8 5.7 5.6 5.5 5.4 5.3 5.3 5.3 5.3 5.4 5.5 5.5 5.6 5.6 5.7 5.7 5.7 5.6 5.5 5.5 5.5 5.5 5.6 5.7 5.8 5.9
Wind_Speed
15 12 7 5 4 5 11 25 25 27 33 31 30 32 39 41 40 10 5 6 8 4 5 4 2 16 17 16 16 15 10 6 6 9 6 4 4 5 8 12 5 9 10 5 7 6 10 12 10 11 12 2 4 7
10 13 10 6 5 13 21 24 26 29 29 29 29 33 38 35 32 13 7 5 4 4 4 2 1 15 16 27 15 16 10 15 8 8 6 5 2 1 7 6 4 5 6 4 9 7 3 20 14 16 6 5 5 9
9 11 12 12 15 19 23 25 26 27 28 28 32 36 34 30 24 12 7 9 5 4 3 2 1 11 13 14 12 10 11 10 11 8 5 4 4 5 5 10 14 8 4 4 2 11 10 11 14 6 10 7 6 8
21 15 7 11 14 17 20 21 24 24 25 29 34 37 35 28 22 13 7 7 6 4 3 6 4 9 11 12 13 13 11 11 5 8 6 4 3 6 6 6 9 6 10 10 10 9 3 10 15 15 10 6 7 11
21 22 17 16 14 16 18 21 23 27 28 30 32 34 31 24 21 11 7 3 4 4 1 4 7 11 13 14 14 15 12 11 6 5 4 5 2 2 2 1 6 7 7 7 7 10 8 13 7 14 14 14 13 17
19 22 24 26 25 23 25 27 29 29 27 26 30 33 30 26 20 8 3 2 3 2 3 2 5 7 6 12 16 18 15 11 4 7 4 5 2 4 5 8 18 13 10 12 9 1 6 1 2 11 13 12 14 16
17 20 23 25 26 28 29 29 30 29 30 28 27 28 27 23 8 4 3 3 10 5 1 3 3 4 8 11 8 11 16 10 9 6 5 5 5 4 3 9 13 12 13 10 3 3 3 8 5 11 8 11 10 12
16 18 21 23 25 27 28 30 30 30 29 28 28 26 24 15 8 2 3 12 11 4 3 3 4 3 2 2 4 2 7 8 10 8 2 7 3 2 5 9 13 3 3 7 7 3 2 2 8 9 12 12 15 15
16 16 18 20 21 24 25 25 27 27 27 27 25 24 9 2 3 2 6 21 2 3 3 3 3 1 1 2 2 2 3 3 2 4 4 5 5 8 1 4 6 5 5 4 5 4 5 3 6 9 10 13 13 13
15 15 16 18 19 21 23 24 25 26 27 28 12 3 2 5 15 17 6 4 2 2 4 3 2 2 2 1 2 2 2 4 4 3 5 4 8 3 4 6 6 3 3 8 5 3 5 9 10 9 10 7 9 13
16 15 14 17 19 20 22 24 27 27 18 3 2 2 4 18 6 2 3 5 6 3 4 3 5 2 3 1 2 1 1 1 4 4 6 3 3 3 11 7 3 3 1 3 5 1 5 11 13 15 14 12 12 13
19 17 15 17 18 19 21 22 27 8 3 2 3 5 3 3 2 2 5 3 3 3 2 2 3 4 2 2 2 0 1 1 2 2 3 3 3 10 9 8 5 2 2 3 5 6 8 10 9 12 16 15 13 14
17 18 20 19 18 19 18 15 11 13 7 3 3 4 1 3 2 2 3 1 2 4 2 4 2 4 1 2 2 1 2 1 1 1 3 3 7 8 8 6 7 8 7 9 10 14 14 14 15 14 16 15 19 14
19 21 22 19 16 17 17 15 12 6 2 3 3 4 3 2 4 2 3 1 2 1 1 1 2 2 1 2 1 2 1 0 2 3 4 7 11 8 7 7 7 9 10 12 13 16 14 17 15 14 14 15 15 14
18 20 22 21 22 18 16 16 9 2 4 5 5 4 5 3 5 5 5 4 3 2 2 2 2 2 3 3 4 2 3 5 6 5 6 9 8 7 8 8 8 8 10 11 11 13 15 15 15 16 14 13 14 13
16 13 6 21 17 20 17 5 4 3 3 3 6 5 8 4 7 6 5 4 3 3 1 2 3 4 6 3 5 7 3 5 5 6 8 7 9 10 10 10 11 11 12 14 14 14 15 16 16 16 16 14 13 13
10 3 13 18 18 15 9 4 3 5 5 5 4 9 8 4 5 6 4 5 3 1 3 4 6 6 3 4 4 5 4 5 7 6 8 11 12 13 12 13 14 14 15 15 16 16 15 14 14 15 17 15 15 15
4 12 18 18 14 9 2 4 4 5 7 6 5 6 6 6 7 6 6 9 3 3 3 4 4 7 6 4 3 4 3 4 6 7 9 11 14 15 13 15 15 15 16 16 15 15 15 14 15 11 13 13 12 12
12 11 15 8 3 3 3 3 4 5 6 3 5 4 3 9 11 9 9 9 9 8 5 4 7 5 4 4 5 5 5 4 5 7 10 14 14 14 14 15 16 16 17 16 15 11 11 15 11 9 8 8 8 7
21 16 16 13 5 2 4 4 3 5 4 3 3 10 10 9 10 11 12 11 10 5 8 6 5 6 4 5 6 5 5 5 5 8 10 10 10 15 15 12 11 13 12 14 13 14 11 11 10 10 9 8 7 7
9 5 7 3 3 5 4 3 4 3 4 3 2 6 7 10 15 14 14 11 11 5 6 7 7 7 9 8 7 7 10 10 10 9 8 9 10 11 11 11 12 11 11 10 10 11 12 9 8 7 8 7 7 6
2 3 2 4 3 4 4 6 4 2 3 3 3 4 4 6 7 10 9 9 6 9 5 6 8 7 10 13 11 13 12 14 14 11 12 11 10 10 10 9 10 10 10 9 9 9 8 8 7 7 7 6 7 7
4 4 4 5 5 5 3 3 4 5 3 3 2 4 4 4 4 4 5 5 5 6 7 8 10 12 11 12 13 15 14 13 10 10 10 9 9 9 9 10 9 9 8 8 7 7 7 8 8 7 7 7 7 6
6 5 5 5 6 4 2 4 3 3 3 3 4 4 4 4 3 4 5 3 5 5 7 8 5 6 8 11 10 9 8 8 9 9 8 8 8 9 8 8 8 8 7 6 6 6 7 7 7 7 7 7 7 7
5 7 5 7 4 4 4 4 4 4 4 4 3 4 3 2 3 3 3 2 4 5 6 6 6 7 7 7 7 8 9 7 7 8 7 6 6 5 6 7 8 8 7 6 7 6 6 6 6 6 7 7 8 8
8 8 5 4 3 4 3 3 4 4 3 3 4 3 2 3 4 4 3 2 3 4 4 4 4 6 7 6 6 6 6 5 5 7 7 7 6 5 5 5 4 5 7 5 5 6 6 6 6 7 6 7 7 8
6 6 5 4 3 4 5 4 3 4 4 4 2 2 2 4 3 3 3 3 3 3 4 4 4 6 6 6 6 6 6 7 7 6 5 6 6 6 6 5 5 4 5 5 5 5 6 6 6 6 6 6 6 6
5 6 5 5 6 5 5 4 4 4 3 3 2 4 3 2 3 2 3 4 5 5 5 5 5 5 5 5 4 3 4 4 5 5 5 5 5 5 5 3 4 5 5 4 4 4 4 5 5 5 6 6 6 6
5 3 3 6 6 6 6 4 3 3 4 2 2 3 3 3 2 2 4 4 4 4 4 5 5 4 5 5 5 5 5 4 1 2 3 3 3 4 4 3 3 4 4 4 5 5 6 5 5 4 5 5 5 5
4 4 5 5 5 6 4 4 3 3 4 4 4 4 3 3 3 2 3 3 3 3 3 3 3 2 3 2 3 4 4 4 4 4 3 3 3 3 3 4 5 4 5 5 5 5 5 4 4 3 4 4 4 5
2 3 5 5 5 3 4 4 4 4 3 5 5 5 5 3 2 3 3 3 3 3 4 4 3 2 3 3 3 2 3 4 4 3 3 1 2 3 4 4 6 6 5 5 5 4 5 4 4 5 5 6 6 6
4 4 4 4 3 4 1 3 3 3 3 3 3 2 2 2 3 3 1 1 2 2 1 1 2 3 3 3 2 3 2 2 3 3 3 3 3 5 6 6 6 5 4 5 5 4 4 5 5 5 5 6 7 7
3 3 4 5 4 4 3 2 2 3 2 2 2 2 1 0 2 2 2 1 1 2 2 2 3 3 3 3 2 2 2 4 4 3 3 3 5 7 8 6 6 6 6 5 5 4 5 6 6 6 6 6 7 7
Wind_Direction
326 342 358 25 46 159 177 175 178 168 169 169 169 168 167 169 176 157 146 188 189 175 133 69 74 200 188 200 188 172 161 177 176 208 212 184 214 207 200 212 187 198 174 180 206 215 244 147 142 205 230 225 213 208
17 24 31 66 85 119 139 144 145 154 158 161 159 160 157 167 169 156 153 140 163 199 87 75 349 284 276 199 191 173 181 172 178 190 212 221 165 73 197 220 178 248 233 213 209 215 191 183 209 220 231 217 195 197
33 28 44 73 85 114 125 136 145 148 153 154 158 157 157 155 156 143 135 148 148 155 172 178 166 260 254 249 247 184 195 173 196 200 184 214 207 161 174 218 239 208 191 242 239 228 222 203 219 226 207 199 191 194
40 42 71 82 99 114 120 129 139 142 149 155 156 153 155 146 130 122 125 157 158 126 240 223 137 272 252 234 235 238 213 196 217 201 231 209 204 208 207 237 215 228 162 213 244 252 255 238 231 220 201 196 187 174
43 46 87 90 106 113 123 131 134 140 138 141 142 148 151 131 115 96 101 104 144 197 216 270 290 252 250 260 226 210 219 196 194 175 190 222 199 188 178 244 224 191 196 193 229 236 218 260 248 206 199 194 184 168
53 58 66 80 93 106 115 119 124 120 120 120 130 133 123 121 118 97 75 287 169 88 61 302 309 251 255 218 206 206 216 218 229 219 216 223 152 209 219 227 238 210 219 227 253 203 246 108 339 182 202 190 179 178
65 71 75 81 84 90 95 101 105 109 111 115 119 113 116 115 108 110 122 129 136 140 154 278 256 218 198 190 189 198 202 206 217 233 224 219 187 216 244 252 242 221 221 213 195 167 230 212 215 161 181 160 156 156
81 80 85 90 94 97 99 103 106 107 111 117 122 120 128 107 99 161 90 141 121 106 38 264 267 273 257 109 128 147 180 190 194 220 229 226 150 218 247 248 252 226 193 206 188 192 321 86 134 144 142 149 148 149
94 96 96 95 99 104 109 113 116 121 123 122 121 120 122 140 140 245 135 147 109 115 224 209 278 15 265 79 105 108 64 147 133 194 220 192 193 221 161 302 272 237 246 217 155 128 121 158 136 142 148 155 148 148
103 102 106 106 106 111 116 117 115 117 117 119 122 94 167 170 111 121 139 156 172 221 230 243 277 311 336 339 75 98 136 149 165 187 149 215 236 80 23 326 317 288 221 155 149 157 159 142 145 145 134 136 138 141
112 121 112 107 106 108 115 123 124 121 121 119 131 130 84 122 174 76 108 175 185 222 219 227 203 278 2 37 77 23 154 226 165 157 192 191 217 16 346 334 9 29 305 284 302 304 174 162 157 145 128 123 129 137
101 117 135 121 128 122 118 121 130 131 144 127 95 96 127 187 103 118 160 157 192 234 237 153 177 154 295 285 115 329 97 334 151 100 188 131 26 346 341 344 2 36 82 62 65 102 115 124 143 134 123 116 111 102
97 103 136 128 111 108 118 129 56 31 342 216 165 120 240 20 86 249 210 227 201 157 196 173 136 150 160 53 65 121 170 131 103 50 64 47 330 348 354 6 26 37 59 80 89 101 94 91 92 98 96 102 98 102
86 101 114 114 109 105 74 63 58 343 26 32 33 59 349 77 36 344 302 55 14 340 273 160 100 100 95 69 39 121 68 141 88 60 51 358 343 344 8 25 54 55 58 75 86 86 86 88 87 87 92 97 107 106
83 92 105 101 104 90 72 54 36 15 34 34 18 45 53 11 12 347 328 330 5 309 244 86 70 60 36 70 22 50 66 64 35 22 352 334 350 10 37 48 53 60 69 71 75 78 78 83 84 79 75 81 84 85
98 74 69 136 138 118 114 87 30 59 61 63 39 357 350 18 359 1 344 308 308 338 359 23 84 72 46 30 53 19 60 50 15 336 330 359 25 43 53 59 65 69 69 69 67 70 71 70 75 78 71 67 70 77
74 70 100 95 88 81 69 79 50 47 28 34 36 23 6 357 328 325 313 313 275 335 56 54 50 43 21 54 51 20 44 19 345 356 4 30 47 53 57 59 60 65 68 69 72 69 70 72 73 72 74 72 76 76
89 121 112 108 91 70 59 47 76 59 58 22 17 12 12 357 345 354 347 357 28 68 52 65 58 41 37 47 55 23 2 359 49 38 36 42 50 52 56 61 60 63 65 65 67 70 71 73 76 78 85 87 87 85
126 124 117 99 85 96 79 49 57 84 47 71 30 20 51 25 23 16 22 28 49 60 91 65 54 42 46 22 358 356 359 21 61 54 50 44 45 56 62 63 65 66 68 68 67 66 63 60 63 66 67 72 75 72
94 88 81 58 50 69 81 63 84 80 66 87 69 51 52 42 27 30 33 37 50 61 51 51 43 28 26 17 14 11 3 43 80 72 56 46 47 54 53 59 62 68 68 64 59 58 63 60 52 53 54 56 63 60
64 18 43 39 72 64 72 61 71 96 128 77 94 58 64 45 38 33 35 25 44 43 67 57 62 53 49 44 50 57 55 56 58 65 68 64 51 57 58 56 59 60 61 58 60 56 53 52 44 44 48 46 46 37
96 85 72 18 83 72 72 24 77 84 74 84 62 45 42 28 27 29 33 44 59 39 45 51 54 58 56 50 51 54 64 70 68 67 61 61 58 54 51 50 56 59 56 53 53 54 52 41 30 40 40 34 36 43
78 43 47 25 74 58 44 357 61 25 63 65 67 53 46 49 38 29 63 41 50 16 38 60 63 62 68 63 64 58 55 64 66 64 65 66 66 62 60 54 50 57 58 50 49 52 51 34 41 34 34 32 26 28
38 49 40 46 47 77 54 40 41 52 52 40 54 64 48 49 55 68 65 54 27 27 42 45 65 81 73 62 57 49 47 62 72 64 57 69 70 62 60 61 58 55 49 47 45 44 37 37 23 33 27 26 25 14
68 17 27 50 34 69 61 49 28 56 65 41 75 66 61 43 71 74 82 86 42 39 40 56 62 68 81 81 73 65 46 56 72 75 50 54 73 81 75 69 60 45 22 28 30 28 30 22 25 20 21 23 11 2
73 22 43 36 45 69 49 75 54 56 60 67 64 71 54 75 77 86 88 86 61 41 38 42 70 87 74 61 74 59 43 44 76 76 55 43 43 49 50 47 48 52 24 18 11 12 20 14 12 6 1 1 355 344
67 52 53 30 73 94 91 73 73 66 63 56 56 60 70 75 90 95 116 50 82 54 53 47 61 86 95 92 77 61 56 54 65 81 83 66 56 44 39 46 50 29 1 7 13 13 9 4 1 357 354 354 357 351
65 44 63 9 66 40 83 59 46 50 57 39 86 46 67 61 104 90 76 97 97 92 86 76 66 75 83 78 69 78 87 93 107 105 107 97 69 61 52 54 42 12 7 17 9 6 7 358 355 354 355 348 349 352
54 25 63 43 53 51 42 37 62 54 3 18 83 88 96 67 56 99 113 119 120 118 110 106 92 99 96 88 70 53 41 27 56 88 74 67 67 54 26 21 18 17 1 343 360 353 345 351 345 345 346 343 343 337
48 5 83 55 49 44 32 13 64 60 41 56 98 108 90 80 47 29 129 140 145 118 95 93 109 137 105 115 100 83 57 43 36 32 36 43 34 5 358 3 356 0 346 346 347 345 357 353 342 341 347 350 358 350
17 67 72 56 70 57 99 107 110 91 62 57 57 76 94 111 103 50 65 79 104 124 132 121 106 82 92 71 51 56 77 70 50 44 24 12 358 352 358 349 348 342 338 337 339 340 342 332 344 338 344 347 347 340
35 56 111 105 119 153 238 24 50 64 52 52 70 86 127 146 151 149 97 188 173 173 107 137 147 126 101 92 80 65 44 348 352 9 359 355 343 348 335 333 329 325 326 323 322 321 326 332 327 332 328 330 333 329
84 75 87 107 127 176 198 141 77 97 70 78 83 55 45 337 140 127 121 2 344 106 113 114 113 116 115 98 68 67 3 359 342 328 338 327 323 320 317 318 321 318 316 315 315 314 314 316 314 321 318 318 319 320